Wind_Speed
25 27 28 30 30 31 31 34 34 33 32 33 32 32 33 34 34 35 36 35 37 38 39 39 41 42 47 40 38 43 47 46 50 49 37 35 38 37 36 34 33 31 29
23 24 26 27 26 27 26 27 30 31 33 34 32 31 32 33 34 35 35 35 36 35 39 42 38 37 31 38 41 41 45 49 52 48 32 38 41 41 35 35 33 31 29
21 20 20 21 23 24 24 24 26 28 30 33 33 31 32 32 33 35 36 37 38 34 33 39 38 37 36 37 41 40 41 43 43 43 37 35 37 38 38 34 34 33 33
16 16 16 17 18 19 20 20 23 26 27 28 30 30 30 26 28 31 36 40 39 37 38 38 40 42 41 40 44 43 43 39 45 52 43 39 37 38 36 36 34 35 33
13 12 12 13 14 15 16 16 17 19 21 22 24 25 26 27 25 25 26 33 37 39 41 41 41 47 45 42 42 41 43 40 39 43 49 47 46 36 38 31 34 33 32
9 9 10 11 12 15 17 17 17 18 19 20 19 19 20 21 22 21 25 27 28 34 37 46 47 50 48 35 38 45 46 46 44 49 54 58 54 45 34 38 37 34 35
7 6 7 9 11 13 16 19 21 23 26 28 28 21 18 18 21 22 24 26 27 31 32 30 37 49 48 36 44 37 49 39 36 38 44 52 51 41 39 37 37 35 33
7 7 8 10 12 14 16 18 21 24 25 27 28 28 33 30 22 15 16 21 25 24 27 30 21 24 32 27 27 29 32 36 40 33 41 36 39 38 36 38 37 34 34
5 9 13 12 11 13 15 16 18 20 21 21 23 23 24 29 33 33 25 16 13 18 19 25 24 27 34 34 30 34 35 34 36 31 30 27 33 35 37 37 36 39 38
9 8 11 12 14 15 16 18 19 21 22 22 22 23 23 19 18 23 29 30 25 22 17 15 27 25 30 35 38 37 31 32 36 33 34 35 34 34 32 35 36 38 39
9 11 12 13 14 16 18 19 19 21 21 21 21 21 21 20 22 21 17 14 20 27 28 25 15 7 25 31 30 35 36 32 32 38 31 26 30 33 36 36 37 36 36
10 11 13 15 17 18 19 19 20 20 19 20 21 21 21 21 20 20 21 22 19 15 14 21 24 25 21 10 27 36 40 37 37 36 42 42 35 36 35 37 37 35 31
10 12 13 15 16 17 18 19 19 19 20 20 20 20 20 20 21 22 21 20 19 20 20 17 12 11 16 22 19 14 16 31 34 36 36 36 36 39 36 37 37 34 34
11 13 14 15 16 16 17 18 19 20 21 22 23 23 24 24 22 21 20 20 20 20 19 19 18 16 12 9 8 13 17 13 11 25 33 36 37 37 39 39 39 37 37
13 15 16 17 18 20 21 23 24 25 25 27 28 29 29 28 28 30 30 27 25 23 22 21 19 19 18 17 14 12 11 9 13 15 15 21 27 32 42 41 42 41 41
15 17 18 20 22 24 25 27 28 29 30 30 29 28 28 29 30 30 30 31 30 28 26 26 25 24 22 21 19 18 17 15 15 14 15 17 18 22 28 33 39 41 45
17 20 21 22 23 24 25 26 28 29 29 29 29 29 28 28 27 27 28 28 29 30 30 29 28 27 27 26 25 23 20 19 19 19 19 18 19 20 20 21 24 23 30
19 21 23 26 27 27 28 27 26 24 24 25 27 28 28 29 29 28 28 27 28 29 31 30 30 29 28 28 28 27 26 24 22 21 22 21 21 21 20 19 21 21 22
21 23 25 27 28 29 29 28 27 27 27 27 25 26 27 28 29 30 31 31 30 29 28 30 31 31 29 28 28 28 27 26 26 25 23 22 22 21 21 21 21 21 21
22 24 26 28 28 29 28 28 28 30 30 31 31 31 30 29 29 29 30 30 30 30 30 30 31 31 32 30 28 27 27 27 26 26 25 25 23 23 22 20 19 20 21
23 25 27 29 29 29 30 29 30 31 33 34 36 35 35 36 36 35 33 32 31 31 31 31 31 31 32 31 30 27 26 26 26 25 25 24 24 23 23 24 22 20 20
25 27 29 30 31 31 31 32 33 34 35 35 36 37 38 38 38 37 36 34 33 32 31 31 32 32 31 30 30 29 26 25 25 25 25 25 24 23 23 23 24 24 22
26 29 30 31 31 31 32 32 33 34 35 37 37 37 38 38 37 36 37 36 34 33 31 30 29 30 32 31 29 29 28 25 24 24 24 25 25 25 24 24 24 24 23
27 29 30 31 31 32 32 33 34 35 36 37 37 37 37 37 36 35 36 35 34 33 32 31 30 28 28 30 30 28 27 26 24 23 23 24 24 25 25 25 24 24 24
28 30 30 30 31 31 32 32 34 35 35 36 36 36 36 36 36 35 35 36 34 33 31 30 30 29 28 27 27 28 26 24 24 23 23 23 23 24 25 25 25 25 24
28 29 29 30 31 31 31 32 33 34 34 35 35 36 36 36 36 36 36 35 34 32 32 30 29 27 27 27 26 26 25 25 23 22 22 22 22 22 23 24 24 25 25
Wind_Direction
296 298 300 295 293 292 288 284 284 283 282 279 279 278 274 268 264 263 264 267 268 265 262 266 254 263 258 240 230 238 241 241 245 233 225 233 236 239 243 250 250 244 247
304 304 302 303 303 300 295 290 285 285 284 284 284 280 277 272 262 260 263 265 266 267 267 263 253 257 244 231 228 241 243 247 236 236 223 236 240 242 241 246 249 241 237
308 309 310 309 308 306 304 300 295 291 289 290 287 282 279 274 268 260 261 261 266 272 269 257 251 248 244 243 244 245 245 244 243 240 235 240 233 233 234 238 240 239 232
315 317 319 316 314 309 306 305 303 299 298 293 288 282 280 278 278 266 260 261 264 265 262 263 250 244 243 244 247 244 244 237 244 245 239 239 234 231 233 236 240 242 232
327 338 337 338 343 346 344 338 333 327 320 308 295 285 288 282 291 272 268 262 262 262 263 262 254 234 239 242 238 238 243 233 237 242 242 242 234 233 222 234 241 239 230
355 352 2 7 19 27 26 24 25 21 10 355 333 318 307 296 287 280 268 268 267 266 262 257 255 235 239 231 230 235 228 231 235 238 250 241 237 231 236 237 239 231 229
354 10 36 41 43 42 41 35 27 29 31 30 28 16 357 325 299 287 287 277 279 261 267 274 246 236 245 217 233 238 225 231 245 255 242 239 228 230 241 233 235 230 237
12 29 48 52 48 45 47 43 38 31 26 23 22 24 27 23 6 330 299 277 270 263 261 269 252 235 203 235 207 226 224 239 245 244 231 225 224 231 233 227 229 231 235
43 48 47 38 38 44 44 42 42 37 34 29 23 22 26 25 19 23 17 356 319 280 277 265 253 229 238 226 217 231 240 241 247 231 224 221 221 226 227 226 229 229 236
44 52 48 39 36 37 42 37 34 30 28 27 22 19 20 21 22 18 17 19 22 21 5 309 255 229 222 232 227 231 241 240 221 221 211 221 218 224 225 233 236 242 234
48 48 40 33 28 23 25 22 19 18 16 13 10 11 11 13 15 12 12 15 18 18 13 20 27 357 249 238 224 233 235 237 230 223 222 225 228 227 235 237 244 246 242
42 32 25 20 18 13 10 9 6 3 0 359 356 356 356 360 4 4 1 3 4 5 11 10 6 11 20 360 243 242 245 231 231 248 219 219 227 239 236 235 237 242 245
31 24 19 13 7 2 358 356 352 350 347 346 345 346 345 346 348 347 347 350 352 353 355 355 354 358 359 358 355 1 280 250 230 223 224 229 232 231 232 230 235 241 246
21 16 11 6 360 355 349 347 345 342 341 341 340 340 341 340 338 333 333 334 337 337 337 336 336 334 329 321 324 327 335 334 284 250 240 233 225 224 226 232 235 235 241
15 9 4 359 353 349 346 343 340 340 341 343 344 342 340 337 336 336 335 332 328 324 322 321 321 319 316 312 305 297 288 287 310 309 291 262 249 228 227 233 235 235 238
2 357 354 350 347 344 341 339 339 341 340 339 338 337 337 337 334 332 330 328 326 324 318 312 308 305 301 298 296 290 285 281 270 253 261 274 273 262 252 240 237 236 235
352 348 343 341 340 338 337 338 338 335 333 333 333 335 336 334 333 330 327 324 321 319 319 316 311 304 300 297 294 290 285 276 271 267 263 253 247 251 251 251 248 252 248
344 339 338 338 337 335 335 332 330 330 329 331 333 331 330 330 330 328 327 325 322 318 315 314 312 309 304 297 292 289 286 284 278 270 266 262 258 254 251 245 243 243 241
334 335 336 336 335 333 329 328 331 331 332 333 333 332 330 329 328 328 327 322 318 315 312 309 309 309 308 303 297 291 286 281 280 278 273 268 263 260 254 252 250 241 237
332 337 335 333 330 326 327 330 331 332 332 334 336 337 336 334 330 327 324 322 319 316 312 309 306 303 303 304 301 295 289 285 279 276 274 273 270 266 259 253 246 247 246
332 334 332 329 326 328 329 332 332 332 334 335 335 336 334 333 332 331 328 324 318 313 310 306 302 300 299 299 298 296 290 285 280 275 271 269 266 264 265 262 254 244 239
330 333 331 327 328 330 331 333 333 334 334 333 333 332 331 331 331 329 326 324 321 317 312 307 303 299 295 293 293 294 290 285 281 277 271 266 263 259 255 255 260 258 249
331 334 328 327 328 330 332 331 331 331 331 330 329 329 329 328 328 327 324 323 322 319 315 311 306 301 298 296 292 289 290 286 280 276 272 267 262 259 255 250 246 249 254
333 329 325 327 329 329 329 330 331 330 329 329 328 327 327 327 326 325 322 321 320 318 315 312 310 305 299 295 294 291 287 285 281 274 270 266 262 258 255 252 248 244 240
331 325 326 328 327 327 330 330 328 328 328 327 327 327 326 324 323 322 320 318 317 316 314 312 311 309 305 299 293 292 289 284 281 276 270 265 259 256 254 251 249 246 243
326 323 325 325 326 329 328 328 328 329 329 328 327 327 324 322 321 321 320 318 316 315 314 313 312 310 308 305 299 293 289 286 282 277 271 265 260 254 251 250 248 246 243
Height
2998 2995 2991 2989 2987 2984 2982 2980 2978 2977 2974 2974 2973 2973 2972 2972 2971 2969 2968 2968 2968 2969 2970 2971 2972 2975 2975 2978 2980 2985 2991 2994 2994 2998 3007 3014 3017 3019 3022 3024 3026 3028 3030
2992 2989 2986 2982 2979 2977 2975 2973 2971 2968 2965 2964 2963 2963 2961 2961 2961 2960 2959 2959 2959 2960 2960 2960 2962 2965 2964 2965 2973 2977 2981 2985 2984 2985 2996 3003 3007 3011 3013 3016 3018 3019 3023
2986 2983 2980 2978 2974 2972 2968 2965 2963 2961 2958 2956 2954 2952 2952 2950 2951 2950 2950 2950 2949 2950 2952 2952 2955 2955 2958 2961 2964 2966 2971 2974 2976 2980 2987 2993 2996 3000 3003 3006 3008 3012 3014
2981 2978 2975 2973 2970 2967 2963 2959 2957 2954 2952 2948 2945 2943 2941 2941 2940 2940 2939 2938 2939 2940 2942 2940 2944 2946 2949 2952 2955 2958 2962 2966 2970 2973 2977 2984 2987 2991 2994 2997 2999 3003 3007
2976 2975 2973 2970 2966 2963 2959 2954 2951 2949 2945 2941 2937 2934 2932 2931 2929 2929 2928 2926 2927 2931 2932 2931 2932 2932 2937 2941 2945 2950 2953 2955 2960 2963 2968 2972 2976 2978 2983 2987 2991 2995 2999
2976 2974 2972 2968 2965 2963 2959 2955 2951 2947 2942 2938 2933 2929 2926 2923 2921 2921 2919 2919 2919 2920 2921 2920 2920 2922 2925 2928 2931 2939 2944 2947 2949 2952 2957 2958 2963 2970 2974 2979 2983 2985 2989
2976 2974 2971 2969 2967 2964 2960 2958 2954 2949 2944 2940 2935 2929 2924 2919 2917 2913 2913 2913 2912 2911 2912 2911 2909 2910 2914 2906 2919 2928 2931 2938 2941 2943 2944 2948 2953 2958 2964 2969 2973 2977 2981
2976 2974 2971 2969 2967 2964 2961 2958 2954 2950 2945 2941 2938 2932 2926 2921 2916 2911 2909 2908 2906 2904 2904 2903 2902 2903 2899 2911 2914 2921 2925 2929 2929 2928 2933 2937 2942 2949 2955 2961 2965 2969 2972
2977 2975 2973 2972 2970 2966 2963 2959 2954 2950 2946 2944 2940 2936 2931 2926 2921 2916 2912 2906 2903 2899 2897 2897 2898 2898 2901 2903 2909 2913 2917 2919 2921 2924 2926 2930 2935 2942 2946 2951 2954 2959 2961
2979 2978 2975 2973 2970 2967 2963 2960 2955 2952 2948 2944 2942 2939 2933 2928 2924 2921 2917 2912 2906 2901 2897 2893 2892 2894 2896 2898 2903 2906 2910 2912 2909 2915 2919 2926 2930 2934 2938 2942 2945 2948 2951
2980 2978 2976 2974 2971 2967 2963 2960 2957 2953 2950 2946 2944 2940 2936 2931 2927 2923 2918 2913 2910 2904 2900 2896 2891 2889 2890 2892 2890 2898 2901 2901 2905 2908 2909 2915 2921 2926 2930 2933 2935 2938 2942
2982 2980 2977 2974 2971 2968 2965 2962 2959 2956 2953 2948 2945 2941 2937 2933 2929 2925 2919 2914 2909 2905 2902 2897 2893 2891 2889 2886 2887 2889 2892 2894 2896 2898 2902 2906 2910 2915 2919 2923 2926 2929 2932
2982 2980 2977 2974 2972 2969 2966 2963 2960 2957 2953 2949 2945 2940 2937 2932 2928 2924 2920 2916 2911 2906 2901 2898 2896 2892 2890 2890 2888 2887 2885 2887 2888 2890 2893 2895 2899 2903 2908 2913 2916 2919 2922
2982 2979 2977 2974 2972 2969 2966 2963 2959 2955 2951 2947 2943 2938 2933 2929 2926 2922 2918 2915 2910 2907 2903 2899 2895 2892 2891 2889 2888 2887 2887 2886 2883 2883 2884 2885 2887 2891 2897 2901 2905 2908 2911
2981 2979 2976 2974 2971 2968 2964 2960 2956 2952 2947 2942 2938 2933 2929 2925 2921 2916 2912 2909 2906 2903 2901 2898 2896 2894 2891 2889 2887 2885 2884 2882 2881 2881 2880 2879 2881 2881 2884 2888 2892 2895 2900
2981 2979 2976 2973 2970 2966 2962 2957 2953 2948 2943 2939 2935 2932 2927 2922 2918 2914 2910 2906 2902 2899 2897 2894 2892 2890 2889 2887 2884 2883 2880 2878 2877 2875 2875 2876 2876 2876 2876 2877 2879 2882 2886
2980 2978 2975 2973 2969 2965 2961 2956 2951 2946 2941 2938 2933 2928 2924 2920 2916 2912 2908 2903 2899 2896 2892 2889 2887 2885 2883 2880 2879 2878 2876 2875 2874 2872 2871 2870 2870 2870 2870 2870 2871 2872 2873
2979 2977 2973 2969 2965 2962 2958 2954 2950 2947 2942 2937 2931 2926 2921 2916 2911 2908 2905 2901 2897 2892 2888 2884 2881 2878 2876 2874 2873 2871 2870 2869 2868 2867 2866 2865 2864 2864 2864 2864 2864 2865 2867
2978 2974 2970 2966 2962 2959 2955 2951 2946 2941 2937 2932 2927 2922 2917 2911 2906 2902 2898 2894 2890 2887 2884 2880 2876 2873 2870 2868 2865 2864 2864 2863 2862 2861 2861 2860 2860 2859 2857 2857 2858 2858 2860
2976 2971 2967 2964 2960 2956 2952 2946 2941 2935 2930 2925 2920 2916 2911 2906 2902 2897 2893 2888 2884 2881 2877 2874 2870 2867 2864 2861 2859 2858 2856 2855 2855 2854 2854 2854 2854 2854 2853 2852 2851 2852 2854
2972 2967 2964 2961 2956 2951 2946 2940 2935 2929 2923 2917 2913 2908 2904 2899 2894 2890 2885 2880 2877 2873 2869 2866 2863 2860 2857 2855 2853 2851 2849 2848 2847 2846 2846 2846 2846 2847 2847 2847 2847 2847 2847
2968 2963 2959 2955 2950 2945 2940 2933 2927 2922 2917 2913 2908 2902 2897 2893 2887 2882 2878 2874 2870 2865 2862 2858 2855 2852 2850 2848 2845 2843 2842 2841 2839 2838 2838 2838 2838 2838 2839 2840 2841 2841 2842
2961 2957 2954 2949 2944 2939 2933 2928 2923 2918 2913 2907 2902 2897 2892 2886 2882 2876 2871 2867 2863 2859 2855 2852 2848 2844 2841 2838 2837 2835 2833 2832 2832 2831 2830 2830 2830 2831 2831 2832 2833 2834 2836
2955 2952 2949 2944 2939 2934 2928 2924 2918 2912 2907 2901 2896 2891 2886 2881 2876 2871 2865 2861 2857 2852 2848 2845 2841 2838 2835 2831 2828 2827 2826 2824 2824 2823 2822 2822 2823 2823 2824 2825 2826 2827 2829
2950 2948 2944 2939 2934 2929 2924 2918 2912 2907 2901 2896 2891 2885 2880 2875 2869 2865 2859 2854 2850 2846 2842 2838 2834 2830 2827 2825 2822 2819 2817 2816 2815 2815 2814 2814 2815 2815 2816 2817 2819 2820 2822
2947 2944 2939 2934 2929 2924 2919 2913 2908 2902 2896 2890 2885 2879 2873 2868 2862 2857 2852 2847 2843 2839 2835 2831 2827 2824 2820 2816 2814 2812 2810 2808 2807 2806 2806 2807 2807 2808 2809 2810 2811 2813 2815